Flag for U.S.A. Weather past 2 weeks in Corvallis, Oregon, U.S.A.

Now
84 °F

Sunny.


Feels Like: 82 °F
Forecast: 53 / 93 °F
Wind: No wind

Location: Corvallis Municipal

Current Time: Sep 14, 2014 at 7:19:15 PM

Latest Report: Sep 14, 2014 at 6:55 PM


Visibility: N/A

Pressure: 29.81 "Hg

Humidity: 22%

Dew point: 41 °F

Location of CorvallisLocation

Historic Weather in Corvallis — Graph

°F

Corvallis temperature yesterday

Maximum temperature yesterday: 91 °F (at 4:55 PM)
Minimum temperature yesterday: 41 °F (at 5:55 AM)
Average temperature yesterday: 66 °F

Past Weeks' High & Low Weather Summary

 TemperatureHumidityPressure
High97 °F (Sep 6, 3:55 PM)100% (Aug 31, 6:55 AM)30.18 "Hg (Aug 31, 6:55 AM)
Low41 °F (Sep 12, 7:15 AM)12% (Sep 6, 3:55 PM)29.80 "Hg (Sep 13, 4:55 PM)
Average65 °F56%29.98 "Hg
* Reported Aug 30 6:15 PM — Sep 14 6:15 PM, Corvallis, Weather by CustomWeather, © 2014

Note: Actual official high and low records may vary slightly from our data, if they occured in-between our weather recording intervals... More about our weather records

Advertising

Corvallis weather history for previous 24 hours

 ConditionsComfort  
Time TempWeatherWind HumidityBarometerVisibility
6:15 PM
Sep 14
91 °FSunny.3 mph15%29.81 "HgN/A
5:55 PM91 °FSunny.No wind15%29.81 "HgN/A
5:35 PM91 °FSunny.No wind15%29.81 "HgN/A
4:55 PM91 °FSunny.5 mph16%29.82 "Hg10 mi
4:35 PM91 °FSunny.No wind16%29.82 "Hg10 mi
4:15 PM90 °FSunny.5 mph16%29.82 "HgN/A
3:55 PM90 °FSunny.No wind17%29.82 "HgN/A
3:35 PM90 °FSunny.6 mph17%29.83 "HgN/A
3:15 PM90 °FSunny.5 mph17%29.83 "HgN/A
2:55 PM88 °FSunny.3 mph18%29.84 "HgN/A
2:35 PM88 °FSunny.No wind18%29.84 "HgN/A
2:15 PM84 °FSunny.3 mph20%29.85 "HgN/A
1:55 PM84 °FSunny.5 mph22%29.85 "HgN/A
1:35 PM84 °FSunny.3 mph22%29.86 "HgN/A
1:15 PM82 °FSunny.6 mph21%29.86 "HgN/A
12:55 PM81 °FSunny.5 mph23%29.87 "HgN/A
12:35 PM79 °FSunny.5 mph28%29.87 "HgN/A
12:15 PM79 °FSunny.3 mph28%29.88 "HgN/A
11:55 AM75 °FSunny.No wind31%29.88 "HgN/A
11:35 AM73 °FSunny.No wind33%29.88 "HgN/A
10:55 AM70 °FSunny.No wind40%29.89 "HgN/A
10:35 AM66 °FSunny.No wind43%29.89 "HgN/A
10:15 AM66 °FSunny.3 mph43%29.89 "Hg10 mi
9:55 AM64 °FSunny.No wind49%29.90 "Hg10 mi
9:35 AM61 °FSunny.No wind55%29.89 "Hg10 mi
9:15 AM59 °FSunny.No wind55%29.89 "Hg10 mi
8:55 AM55 °FSunny.No wind63%29.89 "Hg10 mi
8:35 AM52 °FSunny.3 mph72%29.89 "Hg10 mi
8:15 AM48 °FSunny.No wind82%29.88 "Hg10 mi
7:55 AM46 °FSunny.No wind76%29.88 "Hg10 mi
7:35 AM45 °FClear.No wind76%29.88 "Hg10 mi
7:15 AM43 °FClear.No wind81%29.87 "Hg10 mi
6:55 AM43 °FClear.No wind81%29.87 "Hg10 mi
6:35 AM43 °FClear.3 mph76%29.86 "Hg10 mi
6:15 AM43 °FClear.No wind81%29.86 "Hg10 mi
5:55 AM45 °FClear.No wind81%29.86 "Hg10 mi
5:35 AM43 °FClear.No wind81%29.86 "Hg10 mi
4:55 AM45 °FClear.No wind81%29.85 "Hg10 mi
4:35 AM46 °FClear.No wind76%29.85 "Hg10 mi
4:15 AM45 °FClear.No wind81%29.85 "Hg10 mi
3:55 AM46 °FClear.No wind76%29.85 "Hg10 mi
3:35 AM48 °FClear.No wind71%29.85 "Hg10 mi
3:15 AM46 °FClear.No wind76%29.85 "Hg10 mi
2:55 AM46 °FClear.3 mph76%29.85 "Hg10 mi
2:35 AM48 °FClear.3 mph71%29.85 "Hg10 mi
2:15 AM48 °FClear.No wind71%29.85 "Hg10 mi
1:55 AM52 °FClear.No wind67%29.84 "Hg10 mi
1:35 AM52 °FClear.No wind62%29.84 "Hg10 mi
1:15 AM52 °FClear.No wind62%29.84 "Hg10 mi
12:55 AM54 °FClear.No wind67%29.84 "Hg10 mi
12:35 AM54 °FClear.No wind63%29.84 "Hg10 mi
12:15 AM54 °FClear.5 mph63%29.83 "Hg10 mi
11:55 PM
Sep 13
55 °FClear.5 mph55%29.83 "Hg10 mi
11:35 PM59 °FClear.5 mph48%29.83 "Hg10 mi
11:15 PM64 °FClear.3 mph46%29.83 "Hg10 mi
10:55 PM64 °FClear.9 mph46%29.81 "Hg10 mi
10:35 PM64 °FClear.10 mph46%29.81 "Hg10 mi
10:15 PM66 °FClear.10 mph43%29.81 "Hg10 mi
9:55 PM66 °FClear.12 mph43%29.81 "Hg10 mi
9:35 PM66 °FClear.9 mph43%29.81 "Hg10 mi
9:15 PM68 °FClear.9 mph40%29.81 "Hg10 mi
8:55 PM70 °FClear.8 mph38%29.81 "Hg10 mi
8:35 PM72 °FClear.10 mph33%29.80 "Hg10 mi
8:15 PM75 °FSunny.10 mph29%29.80 "Hg10 mi
7:55 PM75 °FSunny.9 mph31%29.80 "Hg10 mi
7:35 PM79 °FSunny.10 mph28%29.80 "HgN/A
7:15 PM79 °FSunny.9 mph26%29.80 "HgN/A
Weather by CustomWeather, © 2014

See weather overviewHow to use our weather pages